Location: *
(55.5817°S, 142.4781°W)
Time: 07:40:22
(UTC+00:00)

Cosmos 1271 Rocket - Pass Details

Date: 29 April 2025
Orbit: 446 x 475 km, 81.2° (Epoch: 23 May)

Event Time Altitude Azimuth Distance (km) Brightness Sun altitude
Exits shadow 15:00:53 32° 247° (WSW) 837 3.2 -15.8°
Maximum altitude 15:01:38 36° 275° (W) 767 3.0 -15.7°
Drops below altitude 10° 15:04:56 10° 343° (NNW) 1,626 5.1 -15.2°
Sets 15:07:05 0° 351° (N) 2,487 6.1 -14.9°
